contact:dominique.lefevre@mio.osupytheas.fr, maurice.libes@osupytheas.fr, didier.mallarino@osupytheas.fr
Project:EMSO http://www.emso-fr.org/EMSO-France
Depth: 2436.0 m
Title:EMSO Ligure Ouest : Data MII capteur AQUADOPP
Date,Latitude,Longitude,X_East,Y_North,Z_Up,Amplitude_X,Amplitude_Y,Amplitude_Z,Batterie,SoundSpeed,Heading,Pitch,Roll,Pressure,TIS,Speed,Direction
, degrees North, degrees East, m.s-1, m.s-1,m.s-1, 1, 1, 1, Volt, m.s-1, degree, degree, degree, dbar, degree_C, m.s-1, degree
2019-10-04T00:04:04,42.805,6.029,0.044,-0.007,0.015,102.0,105.0,98.0,13.4,1505.1,328.2,-0.7,1.8,2470.477,13.27,0.044,99.0
2019-10-04T00:07:05,42.805,6.029,0.003,-0.006,-0.039,99.0,104.0,99.0,13.3,1505.2,323.8,-0.7,1.9,2470.333,13.29,0.006,153.4
2019-10-04T00:10:06,42.805,6.029,0.0,-0.019,-0.03,103.0,103.0,98.0,13.4,1505.2,326.9,-0.7,1.8,2470.116,13.3,0.019,180.0
2019-10-04T00:13:07,42.805,6.029,0.021,-0.026,-0.006,103.0,102.0,98.0,13.3,1505.3,327.1,-0.8,1.8,2470.051,13.31,0.033,141.1
2019-10-04T00:16:08,42.805,6.029,0.035,-0.005,0.0,101.0,105.0,98.0,13.4,1505.3,323.5,-0.7,1.8,2469.919,13.32,0.035,98.1
2019-10-04T00:19:09,42.805,6.029,0.004,-0.017,-0.02,101.0,105.0,99.0,13.4,1505.3,325.0,-0.7,1.8,2469.904,13.32,0.017,166.8
2019-10-04T00:22:10,42.805,6.029,0.019,0.002,-0.005,100.0,105.0,99.0,13.4,1505.3,324.1,-0.7,1.8,2469.899,13.32,0.019,84.0
2019-10-04T00:25:11,42.805,6.029,-0.011,-0.023,-0.043,100.0,105.0,99.0,13.4,1505.3,327.2,-0.7,1.9,2469.855,13.32,0.025,205.6
2019-10-04T00:28:12,42.805,6.029,0.076,0.016,0.034,100.0,106.0,98.0,13.4,1505.3,325.6,-0.7,1.8,2469.909,13.32,0.077,78.1
2019-10-04T00:31:13,42.805,6.029,-0.001,-0.017,-0.013,100.0,107.0,98.0,13.4,1505.3,324.5,-0.7,1.8,2469.859,13.33,0.017,183.4
2019-10-04T00:34:14,42.805,6.029,0.038,-0.012,-0.01,102.0,104.0,99.0,13.3,1505.3,324.8,-0.7,1.9,2469.845,13.33,0.039,107.5
2019-10-04T00:37:15,42.805,6.029,0.042,0.0,-0.001,102.0,105.0,98.0,13.3,1505.3,323.2,-0.7,1.8,2469.83,13.33,0.042,90.0
2019-10-04T00:40:16,42.805,6.029,0.052,-0.003,0.009,100.0,102.0,99.0,13.3,1505.3,326.4,-0.7,1.8,2469.803,13.33,0.052,93.3
2019-10-04T00:43:17,42.805,6.029,0.041,-0.015,-0.001,101.0,105.0,98.0,13.4,1505.3,324.9,-0.7,1.8,2469.854,13.33,0.043,110.1
2019-10-04T00:46:18,42.805,6.029,-0.002,0.001,-0.053,102.0,106.0,98.0,13.3,1505.3,324.0,-0.8,1.8,2469.87,13.33,0.002,296.6
2019-10-04T00:49:19,42.805,6.029,0.026,-0.019,-0.048,101.0,106.0,97.0,13.4,1505.3,326.3,-0.7,1.8,2469.853,13.33,0.032,126.2
2019-10-04T00:52:20,42.805,6.029,0.004,0.002,0.003,101.0,106.0,98.0,13.4,1505.3,325.7,-0.7,1.8,2469.844,13.33,0.004,63.4
2019-10-04T00:55:21,42.805,6.029,0.017,-0.006,-0.013,99.0,105.0,98.0,13.4,1505.3,324.5,-0.7,1.9,2469.835,13.33,0.018,109.4
2019-10-04T00:58:22,42.805,6.029,0.021,-0.021,-0.011,99.0,104.0,99.0,13.3,1505.3,326.2,-0.8,1.9,2469.844,13.33,0.029,135.0
2019-10-04T01:01:23,42.805,6.029,0.012,-0.002,-0.001,101.0,104.0,99.0,13.4,1505.3,327.8,-0.7,1.8,2469.877,13.33,0.012,99.5
2019-10-04T01:04:24,42.805,6.029,0.059,-0.004,0.015,99.0,103.0,99.0,13.3,1505.3,324.7,-0.7,1.9,2469.831,13.33,0.059,93.9
2019-10-04T01:07:25,42.805,6.029,0.054,-0.003,-0.007,101.0,103.0,98.0,13.4,1505.3,325.4,-0.7,1.9,2469.883,13.33,0.054,93.2
2019-10-04T01:10:26,42.805,6.029,0.03,-0.004,-0.033,100.0,104.0,98.0,13.3,1505.3,327.2,-0.7,1.8,2469.9,13.33,0.03,97.6
2019-10-04T01:13:27,42.805,6.029,0.011,-0.009,-0.042,100.0,103.0,98.0,13.4,1505.3,323.5,-0.7,1.8,2469.889,13.33,0.014,129.3
2019-10-04T01:16:28,42.805,6.029,-0.001,-0.012,-0.072,100.0,102.0,99.0,13.4,1505.3,327.4,-0.7,1.8,2469.848,13.33,0.012,184.8
2019-10-04T01:19:29,42.805,6.029,0.022,-0.008,-0.016,100.0,103.0,98.0,13.4,1505.3,327.8,-0.7,1.8,2469.869,13.33,0.023,110.0
2019-10-04T01:22:30,42.805,6.029,0.022,-0.013,-0.028,101.0,103.0,98.0,13.3,1505.3,325.3,-0.7,1.8,2469.861,13.33,0.025,120.6
2019-10-04T01:25:31,42.805,6.029,0.054,0.0,0.013,100.0,102.0,98.0,13.3,1505.3,324.7,-0.7,1.8,2469.874,13.33,0.053,90.0
2019-10-04T01:28:32,42.805,6.029,0.011,-0.01,-0.048,101.0,104.0,97.0,13.4,1505.3,327.0,-0.7,1.8,2469.859,13.33,0.014,132.3
2019-10-04T01:31:33,42.805,6.029,0.001,0.017,-0.055,101.0,102.0,98.0,13.4,1505.3,327.2,-0.7,1.8,2469.902,13.33,0.017,3.4
2019-10-04T01:34:34,42.805,6.029,-0.029,-0.008,-0.033,101.0,103.0,98.0,13.4,1505.3,324.4,-0.7,1.8,2469.87,13.33,0.03,254.6
2019-10-04T01:37:35,42.805,6.029,-0.001,-0.012,-0.045,101.0,103.0,98.0,13.4,1505.3,325.3,-0.8,1.9,2469.894,13.33,0.012,184.8
2019-10-04T01:40:36,42.805,6.029,0.011,-0.003,-0.021,101.0,104.0,98.0,13.4,1505.3,325.7,-0.7,1.9,2469.897,13.33,0.011,105.3
2019-10-04T01:43:37,42.805,6.029,0.017,-0.017,-0.064,100.0,103.0,97.0,13.3,1505.3,327.3,-0.7,1.8,2469.93,13.33,0.024,135.0
2019-10-04T01:46:38,42.805,6.029,0.04,0.006,-0.027,101.0,104.0,98.0,13.4,1505.3,326.6,-0.7,1.8,2469.877,13.33,0.04,81.5
2019-10-04T01:49:39,42.805,6.029,-0.003,-0.003,-0.056,102.0,103.0,97.0,13.4,1505.3,324.9,-0.7,1.9,2469.928,13.33,0.004,225.0
2019-10-04T01:52:40,42.805,6.029,0.004,0.009,-0.042,102.0,102.0,97.0,13.4,1505.3,323.3,-0.8,1.8,2469.898,13.33,0.009,24.0
2019-10-04T01:55:41,42.805,6.029,-0.011,0.013,-0.046,103.0,103.0,99.0,13.4,1505.3,326.7,-0.7,1.8,2469.88,13.33,0.017,319.8
2019-10-04T01:58:42,42.805,6.029,-0.001,-0.012,-0.064,102.0,103.0,103.0,13.3,1505.3,324.4,-0.8,1.8,2469.865,13.33,0.012,184.8
2019-10-04T02:01:43,42.805,6.029,0.011,-0.01,-0.013,100.0,104.0,99.0,13.3,1505.3,325.7,-0.7,1.8,2469.897,13.33,0.014,132.3
2019-10-04T02:04:44,42.805,6.029,0.028,-0.019,-0.018,99.0,104.0,99.0,13.4,1505.3,323.7,-0.7,1.8,2469.916,13.33,0.033,124.2
2019-10-04T02:07:45,42.805,6.029,0.025,-0.011,0.005,103.0,103.0,98.0,13.4,1505.3,327.6,-0.7,1.8,2469.849,13.33,0.027,113.7
2019-10-04T02:10:46,42.805,6.029,-0.015,-0.008,-0.039,101.0,106.0,99.0,13.3,1505.3,327.8,-0.7,1.8,2469.918,13.33,0.017,241.9
2019-10-04T02:13:47,42.805,6.029,0.031,-0.01,-0.012,101.0,107.0,99.0,13.4,1505.3,324.3,-0.7,1.9,2469.909,13.33,0.032,107.9
2019-10-04T02:16:48,42.805,6.029,0.036,0.015,0.018,103.0,104.0,99.0,13.4,1505.3,324.8,-0.7,1.8,2469.881,13.33,0.039,67.4
2019-10-04T02:19:49,42.805,6.029,0.021,-0.017,-0.012,101.0,105.0,99.0,13.4,1505.3,325.8,-0.7,1.8,2469.896,13.33,0.027,129.0
2019-10-04T02:22:50,42.805,6.029,0.016,0.002,0.001,101.0,104.0,99.0,13.4,1505.3,323.2,-0.7,1.9,2469.941,13.33,0.016,82.9
2019-10-04T02:25:51,42.805,6.029,0.028,-0.006,-0.055,101.0,104.0,98.0,13.3,1505.3,325.9,-0.8,1.8,2469.885,13.33,0.028,102.1
2019-10-04T02:28:52,42.805,6.029,-0.001,-0.021,-0.067,101.0,103.0,99.0,13.4,1505.3,325.0,-0.7,1.8,2469.875,13.33,0.021,182.7
2019-10-04T02:31:53,42.805,6.029,-0.001,-0.012,-0.024,100.0,104.0,98.0,13.4,1505.3,326.8,-0.7,1.8,2469.882,13.33,0.012,184.8
2019-10-04T02:34:54,42.805,6.029,-0.029,-0.012,-0.103,101.0,104.0,98.0,13.3,1505.3,327.3,-0.7,1.9,2469.896,13.33,0.031,247.5
2019-10-04T02:37:55,42.805,6.029,0.018,-0.004,-0.067,102.0,104.0,98.0,13.4,1505.3,324.3,-0.7,1.8,2469.902,13.33,0.018,102.5
2019-10-04T02:40:56,42.805,6.029,-0.009,-0.016,-0.04,101.0,104.0,98.0,13.3,1505.3,327.3,-0.7,1.8,2469.928,13.33,0.018,209.4
2019-10-04T02:43:57,42.805,6.029,0.007,-0.025,-0.066,100.0,102.0,99.0,13.3,1505.3,327.2,-0.7,1.8,2469.893,13.33,0.025,164.4
2019-10-04T02:46:58,42.805,6.029,0.0,-0.007,-0.057,101.0,104.0,99.0,13.4,1505.3,326.8,-0.7,1.8,2469.884,13.33,0.007,180.0
2019-10-04T02:49:59,42.805,6.029,0.005,-0.014,-0.035,101.0,104.0,99.0,13.4,1505.3,324.7,-0.8,1.8,2469.892,13.33,0.014,160.4
2019-10-04T02:53:00,42.805,6.029,0.035,-0.004,0.0,100.0,103.0,98.0,13.4,1505.3,328.8,-0.7,1.8,2469.923,13.33,0.035,96.5
2019-10-04T02:56:01,42.805,6.029,0.044,-0.01,0.011,101.0,103.0,98.0,13.3,1505.3,324.0,-0.8,1.8,2469.882,13.33,0.045,102.8
2019-10-04T02:59:02,42.805,6.029,0.002,-0.008,-0.043,102.0,103.0,99.0,13.4,1505.3,326.6,-0.7,1.9,2469.886,13.33,0.008,166.0
2019-10-04T03:02:03,42.805,6.029,0.022,-0.004,-0.002,100.0,103.0,99.0,13.4,1505.3,327.8,-0.7,1.9,2469.894,13.33,0.022,100.3
2019-10-04T03:05:04,42.805,6.029,-0.035,-0.013,-0.056,102.0,103.0,98.0,13.4,1505.3,323.0,-0.7,1.9,2469.902,13.33,0.037,249.6
2019-10-04T03:08:05,42.805,6.029,0.0,-0.031,-0.048,101.0,104.0,98.0,13.4,1505.3,326.0,-0.7,1.8,2469.92,13.33,0.03,180.0
2019-10-04T03:11:06,42.805,6.029,0.01,-0.011,-0.029,101.0,103.0,98.0,13.4,1505.3,328.5,-0.7,1.8,2469.91,13.33,0.014,137.7
2019-10-04T03:14:07,42.805,6.029,-0.007,-0.001,-0.056,102.0,102.0,98.0,13.3,1505.3,322.9,-0.7,1.8,2469.873,13.33,0.007,261.9
2019-10-04T03:17:08,42.805,6.029,-0.04,-0.017,-0.046,102.0,102.0,98.0,13.4,1505.3,328.1,-0.7,1.9,2469.926,13.33,0.043,247.0
2019-10-04T03:20:09,42.805,6.029,0.002,-0.017,-0.062,101.0,102.0,98.0,13.4,1505.3,324.9,-0.7,1.8,2469.899,13.33,0.017,173.3
2019-10-04T03:23:10,42.805,6.029,0.03,-0.006,-0.039,102.0,102.0,99.0,13.4,1505.3,324.4,-0.7,1.8,2469.865,13.33,0.03,101.3
2019-10-04T03:26:11,42.805,6.029,0.028,-0.006,-0.024,100.0,103.0,99.0,13.4,1505.3,323.3,-0.7,1.8,2469.918,13.33,0.028,102.1
2019-10-04T03:29:12,42.805,6.029,0.025,-0.016,-0.047,102.0,101.0,99.0,13.4,1505.3,323.0,-0.7,1.8,2469.847,13.33,0.029,122.6
2019-10-04T03:32:13,42.805,6.029,0.015,0.0,-0.027,101.0,102.0,99.0,13.3,1505.3,325.6,-0.7,1.9,2469.908,13.33,0.015,90.0
2019-10-04T03:35:14,42.805,6.029,0.013,-0.02,-0.049,103.0,102.0,100.0,13.4,1505.3,328.7,-0.7,1.8,2469.876,13.33,0.023,147.0
2019-10-04T03:38:15,42.805,6.029,-0.02,-0.008,-0.085,102.0,103.0,97.0,13.4,1505.3,323.7,-0.7,1.9,2469.88,13.33,0.021,248.2
2019-10-04T03:41:16,42.805,6.029,0.027,-0.008,0.019,102.0,103.0,98.0,13.3,1505.3,326.4,-0.7,1.8,2469.92,13.33,0.028,106.5
2019-10-04T03:44:17,42.805,6.029,0.02,-0.006,-0.008,102.0,104.0,99.0,13.3,1505.3,325.1,-0.7,1.8,2469.87,13.33,0.02,106.7
2019-10-04T03:47:18,42.805,6.029,0.036,-0.009,-0.023,100.0,102.0,99.0,13.3,1505.3,323.5,-0.7,1.8,2469.931,13.33,0.037,104.0
2019-10-04T03:50:19,42.805,6.029,0.005,-0.007,-0.031,101.0,104.0,98.0,13.4,1505.3,326.5,-0.7,1.8,2469.866,13.33,0.008,144.5
2019-10-04T03:53:20,42.805,6.029,0.003,-0.013,-0.033,101.0,103.0,98.0,13.3,1505.3,328.7,-0.7,1.8,2469.883,13.33,0.013,167.0
2019-10-04T03:56:21,42.805,6.029,0.007,-0.022,-0.069,102.0,103.0,98.0,13.3,1505.3,323.4,-0.7,1.9,2469.899,13.33,0.023,162.4
2019-10-04T03:59:22,42.805,6.029,0.035,-0.014,-0.031,101.0,104.0,98.0,13.4,1505.3,324.7,-0.7,1.8,2469.839,13.33,0.037,111.8
2019-10-04T04:02:23,42.805,6.029,0.018,-0.007,-0.018,100.0,104.0,99.0,13.3,1505.3,325.0,-0.7,1.8,2469.921,13.33,0.019,111.2
2019-10-04T04:05:24,42.805,6.029,0.005,0.018,-0.044,103.0,104.0,98.0,13.4,1505.3,327.1,-0.7,1.8,2469.9,13.33,0.018,15.5
2019-10-04T04:08:25,42.805,6.029,0.032,0.005,0.014,100.0,104.0,98.0,13.4,1505.3,326.1,-0.7,1.9,2469.934,13.33,0.032,81.1
2019-10-04T04:11:26,42.805,6.029,0.009,-0.022,-0.049,102.0,104.0,98.0,13.4,1505.3,325.4,-0.7,1.8,2469.922,13.33,0.023,157.8
2019-10-04T04:14:27,42.805,6.029,-0.005,-0.024,-0.075,101.0,104.0,100.0,13.4,1505.3,326.3,-0.7,1.8,2469.902,13.33,0.024,191.8
2019-10-04T04:17:28,42.805,6.029,0.019,-0.016,-0.065,101.0,104.0,98.0,13.3,1505.3,328.6,-0.7,1.8,2469.917,13.33,0.024,130.1
2019-10-04T04:20:29,42.805,6.029,0.026,0.001,-0.023,102.0,104.0,98.0,13.4,1505.3,323.8,-0.7,1.8,2469.868,13.33,0.026,87.8
2019-10-04T04:23:30,42.805,6.029,0.007,-0.015,-0.02,102.0,105.0,99.0,13.3,1505.3,324.9,-0.7,1.9,2469.875,13.33,0.016,155.0
2019-10-04T04:26:31,42.805,6.029,0.044,-0.005,0.008,102.0,104.0,98.0,13.4,1505.3,326.9,-0.7,1.8,2469.869,13.33,0.044,96.5
2019-10-04T04:29:32,42.805,6.029,0.048,-0.005,0.004,101.0,104.0,98.0,13.4,1505.3,323.1,-0.7,1.8,2469.86,13.33,0.048,95.9
2019-10-04T04:32:33,42.805,6.029,0.019,0.001,-0.044,100.0,105.0,100.0,13.4,1505.3,326.7,-0.7,1.9,2469.906,13.33,0.019,87.0
2019-10-04T04:35:34,42.805,6.029,0.042,-0.02,-0.012,103.0,104.0,99.0,13.4,1505.3,324.9,-0.7,1.8,2469.915,13.33,0.046,115.5
2019-10-04T04:38:35,42.805,6.029,0.026,-0.027,-0.042,103.0,103.0,99.0,13.4,1505.3,326.7,-0.7,1.8,2469.862,13.33,0.037,136.1
2019-10-04T04:41:36,42.805,6.029,-0.018,-0.009,-0.06,103.0,105.0,100.0,13.4,1505.3,327.6,-0.7,1.8,2469.871,13.33,0.02,243.4
2019-10-04T04:44:37,42.805,6.029,0.003,-0.01,0.009,102.0,105.0,100.0,13.4,1505.3,323.6,-0.7,1.9,2469.877,13.33,0.01,163.3
2019-10-04T04:47:38,42.805,6.029,-0.001,-0.01,-0.031,102.0,104.0,99.0,13.4,1505.3,326.1,-0.7,1.8,2469.901,13.33,0.01,185.7
2019-10-04T04:50:39,42.805,6.029,0.007,-0.013,-0.007,102.0,103.0,99.0,13.4,1505.3,326.5,-0.7,1.8,2469.885,13.33,0.014,151.7
2019-10-04T04:53:40,42.805,6.029,-0.003,-0.005,-0.034,103.0,103.0,99.0,13.4,1505.3,327.7,-0.7,1.8,2469.905,13.33,0.005,211.0
2019-10-04T04:56:41,42.805,6.029,0.039,-0.009,-0.049,102.0,104.0,100.0,13.4,1505.3,325.8,-0.7,1.8,2469.863,13.32,0.04,103.0
2019-10-04T04:59:42,42.805,6.029,0.014,-0.013,-0.036,103.0,104.0,99.0,13.4,1505.3,325.1,-0.7,1.9,2469.865,13.32,0.019,132.9
2019-10-04T05:02:43,42.805,6.029,0.019,-0.009,-0.057,100.0,102.0,98.0,13.4,1505.3,325.4,-0.7,1.8,2469.908,13.32,0.021,115.3
2019-10-04T05:05:44,42.805,6.029,0.009,-0.007,-0.048,100.0,102.0,98.0,13.3,1505.3,326.3,-0.7,1.8,2469.871,13.32,0.011,127.9
2019-10-04T05:08:45,42.805,6.029,0.026,-0.014,-0.046,101.0,102.0,98.0,13.4,1505.3,323.4,-0.7,1.8,2469.863,13.32,0.029,118.3
2019-10-04T05:11:46,42.805,6.029,0.02,-0.031,-0.032,100.0,102.0,98.0,13.4,1505.3,326.3,-0.7,1.8,2469.909,13.32,0.036,147.2
2019-10-04T05:14:47,42.805,6.029,0.003,-0.029,-0.006,99.0,102.0,99.0,13.4,1505.3,327.9,-0.7,1.9,2469.936,13.32,0.029,174.1
2019-10-04T05:17:48,42.805,6.029,0.046,-0.017,-0.052,101.0,102.0,98.0,13.4,1505.3,324.0,-0.7,1.8,2469.891,13.32,0.049,110.3
2019-10-04T05:20:49,42.805,6.029,0.021,-0.005,-0.019,101.0,102.0,98.0,13.4,1505.3,327.2,-0.7,1.8,2469.887,13.32,0.021,103.4
2019-10-04T05:23:50,42.805,6.029,0.029,-0.012,0.002,102.0,101.0,98.0,13.4,1505.3,327.9,-0.7,1.8,2469.929,13.32,0.031,112.5
2019-10-04T05:26:51,42.805,6.029,-0.022,-0.043,-0.063,101.0,101.0,99.0,13.3,1505.3,328.6,-0.7,1.8,2469.9,13.32,0.048,207.1
2019-10-04T05:29:52,42.805,6.029,0.018,-0.022,-0.036,101.0,104.0,98.0,13.4,1505.3,323.5,-0.7,1.8,2469.875,13.32,0.028,140.7
2019-10-04T05:32:53,42.805,6.029,0.011,0.007,-0.017,100.0,104.0,99.0,13.4,1505.3,326.7,-0.7,1.8,2469.878,13.32,0.013,57.5
2019-10-04T05:35:54,42.805,6.029,0.018,0.002,0.015,100.0,104.0,99.0,13.4,1505.3,324.4,-0.7,1.8,2469.887,13.32,0.018,83.7
2019-10-04T05:38:55,42.805,6.029,-0.009,-0.019,-0.026,100.0,104.0,98.0,13.4,1505.3,323.9,-0.7,1.9,2469.874,13.33,0.021,205.3
2019-10-04T05:41:56,42.805,6.029,0.039,-0.013,0.025,101.0,103.0,97.0,13.4,1505.3,325.1,-0.7,1.8,2469.883,13.32,0.041,108.4
2019-10-04T05:44:57,42.805,6.029,0.011,-0.036,-0.055,100.0,104.0,99.0,13.3,1505.3,328.3,-0.7,1.8,2469.918,13.32,0.037,163.0
2019-10-04T05:47:58,42.805,6.029,-0.028,-0.013,-0.042,101.0,104.0,98.0,13.4,1505.3,324.9,-0.7,1.8,2469.911,13.32,0.03,245.1
2019-10-04T05:50:59,42.805,6.029,-0.002,-0.026,-0.08,100.0,105.0,97.0,13.4,1505.3,324.9,-0.7,1.8,2469.947,13.32,0.026,184.4
2019-10-04T05:54:00,42.805,6.029,-0.001,-0.023,-0.021,101.0,103.0,98.0,13.4,1505.3,328.2,-0.7,1.8,2469.953,13.32,0.023,182.5
2019-10-04T05:57:01,42.805,6.029,-0.028,-0.018,-0.022,101.0,103.0,98.0,13.4,1505.3,323.9,-0.7,1.8,2469.899,13.32,0.033,237.3
2019-10-04T06:00:02,42.805,6.029,0.026,-0.014,-0.01,101.0,103.0,97.0,13.4,1505.3,326.8,-0.7,1.8,2469.916,13.32,0.029,118.3
2019-10-04T06:03:03,42.805,6.029,-0.001,-0.023,-0.022,101.0,103.0,99.0,13.3,1505.3,327.3,-0.7,1.8,2469.957,13.32,0.023,182.5
2019-10-04T06:06:04,42.805,6.029,0.018,-0.014,-0.043,101.0,104.0,98.0,13.3,1505.3,324.1,-0.7,1.9,2469.912,13.32,0.022,127.9
2019-10-04T06:09:05,42.805,6.029,0.032,0.005,-0.008,102.0,104.0,97.0,13.3,1505.3,325.0,-0.7,1.8,2469.914,13.33,0.032,81.1
2019-10-04T06:12:06,42.805,6.029,0.013,-0.012,-0.022,101.0,103.0,98.0,13.3,1505.3,326.5,-0.7,1.8,2469.879,13.32,0.017,132.7
2019-10-04T06:15:07,42.805,6.029,0.021,-0.011,-0.022,101.0,103.0,97.0,13.4,1505.3,327.4,-0.7,1.8,2469.895,13.33,0.023,117.6
2019-10-04T06:18:08,42.805,6.029,0.022,-0.002,-0.03,101.0,103.0,98.0,13.4,1505.3,325.8,-0.7,1.8,2469.928,13.33,0.022,95.2
